NOAA NWS Hourly Roundups by Site

Regional Weather Roundup for Green Bay, WI

To Select Another Site Choose from List

Select Site:  

000
ASUS43 KGRB 071511
RWRGRB

NORTH-CENTRAL AND NORTHEAST WISCONSIN REGIONAL WEATHER ROUNDUP
NATIONAL WEATHER SERVICE GREEN BAY WI
1000 AM CDT FRI AUG 07 2020

WIZ005-009-010>012-018-019-071600-
NORTH CENTRAL WISCONSIN

CITY           SKY/WX    TMP DP  RH WIND       PRES   REMARKS
IRONWOOD       SUNNY     72  59  63 S9G16     30.07F
MANITOWISH WTR SUNNY     71  59  66 S12G18    30.11F
ARBOR VITAE    SUNNY     72  61  69 S9        30.13S
EAGLE RIVER    SUNNY     72  56  58 S8        30.13F
LAND O LAKES   SUNNY     72  57  58 S7        30.15S
RHINELANDER    SUNNY     72  57  59 S9        30.15S
PHILLIPS       PTSUNNY   71  59  66 S15       30.11S
ANTIGO         SUNNY     71  59  66 S8        30.17R
TOMAHAWK       CLOUDY    72  60  67 S3        30.14F
MERRILL        MOSUNNY   73  60  65 SW9       30.14F
$$

WIZ013-073-071600-
NORTHEAST WISCONSIN

CITY           SKY/WX    TMP DP  RH WIND       PRES   REMARKS
IRON MOUNTAIN  SUNNY     75  56  51 S7        30.14S
MARINETTE      SUNNY     71  61  70 S6        30.17R
OCONTO         SUNNY     70  62  74 S7        30.16S
$$

WIZ017-030-035>037-045-071600-
CENTRAL WISCONSIN

CITY           SKY/WX    TMP DP  RH WIND       PRES   REMARKS
MEDFORD        SUNNY     70  59  68 S12       30.12F
WAUSAU         SUNNY     73  59  61 S10       30.13S
MOSINEE        SUNNY     70  57  64 S9        30.16S
MARSHFIELD     MOSUNNY   72  60  66 S7        30.13S
WISC RAPIDS    SUNNY     76  57  51 S8        30.14F
STEVENS POINT  NOT AVBL
WAUPACA        SUNNY     76  61  58 S3        30.16S
SHAWANO        SUNNY     73  62  68 CALM      30.16R
CLINTONVILLE   SUNNY     71  60  66 S3        30.16R
WAUTOMA        SUNNY     73  60  63 VRB3      30.15F
$$

WIZ038-039-048-051-071600-
FOX VALLEY

CITY           SKY/WX    TMP DP  RH WIND       PRES   REMARKS
NWS GREEN BAY  SUNNY     73  60  63 S7        30.16S
APPLETON       MOSUNNY   72  54  53 SE7       30.15F
OSHKOSH        SUNNY     72  61  68 S7        30.17R
FOND DU LAC    SUNNY     74  61  63 S7        30.17R
$$

WIZ022-050-052-071600-
EAST CENTRAL WISCONSIN

CITY           SKY/WX    TMP DP  RH WIND       PRES   REMARKS
EPHRAIM        FAIR      72  56  57 W3        30.16S
WASHINGTON ISL FAIR      71  58  64 SW6       30.16S
STURGEON BAY   SUNNY     73  54  51 S8        30.18R
MANITOWOC      SUNNY     72  61  68 S8        30.18S
SHEBOYGAN      SUNNY     74  60  61 S8        30.17S
$$

LMZ563-521-522-541>543-071600-
LAKESHORE

STATION/POSITION TIME  TEMP    WIND        PRES    VSBY  WAVE
                       AIR SEA DIR/SP/G                  HT/PER
                 (UTC) (F)     (DEG/KT/KT) (MB)    (MI)  (FT/S)
SHEBOYGAN LKSHOR 1500   67     160/  5/  6   N/A
KEWAUNEE LKSHORE 1430   68     170/  9/ 11 1021.1F
N MID LAKE BUOY  1450   69 69  210/  8/  8 1021.4S         1/ 3
S GREEN BAY BUOY 1430   69     180/ 10/ 12 1020.4F
SISTER BAY LKSHO 1500   73     320/  5/  5   N/A
CHAMBERS ISLAND  1440   70     130/  4/  9   N/A
MENOMINEE LKSHOR 1430   67 72  160/  9/ 11 1021.0R
$$


 

View Past Reports for Green Bay, WI.

Products Courtesy of NOAA-NWS
NWS Information Parsing Script by Ken True at Saratoga Weather - Script by SE Lincoln Weather.